Wind_Speed
16 16 17 17 17 17 19 19 20 21 22 22 22 24 25 27 24 23 22 23 25 26 27 27 25 24 24 23 24 22 20 18 17 18 17 18 18 18 18 18 17 17 17
17 17 18 19 21 21 20 18 21 21 23 24 23 23 24 22 25 26 24 24 26 27 27 31 29 26 25 24 24 24 24 22 20 19 19 19 19 19 20 20 21 20 19
20 21 21 21 21 22 22 22 21 23 23 22 24 23 24 25 27 27 27 26 24 26 28 29 33 31 30 26 25 26 26 24 23 22 21 20 20 20 20 21 21 22 22
19 21 22 22 21 21 21 21 21 22 22 22 22 24 27 29 30 29 29 29 33 26 25 26 29 35 34 30 27 25 26 26 24 23 23 23 23 23 22 22 22 23 24
17 19 20 21 20 21 20 21 22 21 21 22 22 24 24 27 31 32 33 30 31 30 30 20 20 25 32 33 29 25 23 23 22 22 22 25 24 25 25 26 26 25 26
15 16 16 18 18 19 19 20 21 21 21 21 23 25 25 28 27 30 31 32 32 34 33 34 37 33 32 30 28 30 22 22 21 20 19 24 26 27 27 28 29 29 30
14 13 13 14 15 16 18 19 20 20 20 20 22 23 24 27 30 28 30 30 32 31 32 32 30 28 21 19 24 33 28 24 22 19 20 19 30 30 28 27 29 30 33
14 13 12 12 12 14 16 17 18 19 19 18 18 18 8 16 23 27 28 27 29 31 30 32 31 26 21 27 30 29 28 28 22 22 24 25 30 28 25 27 27 30 31
14 13 13 13 13 13 15 15 16 17 18 18 19 14 5 7 8 16 22 24 23 23 25 26 29 28 25 30 29 27 22 20 19 19 21 22 22 22 22 23 24 26 29
13 12 12 12 13 13 14 15 16 17 17 17 18 19 21 21 7 9 16 15 20 21 12 19 20 24 27 28 25 18 12 11 12 15 17 17 18 20 21 22 23 22 23
12 11 11 12 12 13 13 15 17 18 19 19 18 17 18 19 21 8 10 7 20 11 10 14 16 18 16 16 12 10 7 2 7 9 9 11 14 14 15 14 13 13 13
13 13 12 12 11 12 12 14 15 16 18 19 19 18 17 12 13 10 6 8 9 21 9 6 5 10 13 15 9 3 10 10 11 12 8 6 9 9 9 8 10 12 11
14 14 14 13 13 12 14 13 13 14 16 17 18 19 20 17 16 18 17 10 7 7 1 6 8 13 12 9 6 8 7 7 8 8 2 1 9 10 12 6 8 8 8
12 13 12 12 13 13 12 12 13 15 17 17 17 18 19 20 17 16 13 12 6 4 4 5 7 5 3 5 5 6 7 3 5 6 9 13 15 14 14 16 14 15 16
10 11 12 12 12 12 10 11 11 13 14 14 14 14 14 16 16 18 18 18 10 3 2 4 2 3 3 3 3 2 2 0 4 6 8 12 12 13 15 16 16 17 16
10 10 9 10 10 9 9 9 10 8 10 8 8 8 10 9 8 7 7 8 7 8 1 2 2 4 4 3 2 0 1 2 6 9 11 12 12 12 10 9 10 10 9
9 9 7 7 8 8 8 7 8 8 7 7 7 6 6 7 8 7 6 3 2 3 1 2 3 4 3 1 2 4 6 7 9 12 12 10 7 5 7 9 10 12 11
7 8 6 6 7 7 7 7 7 7 7 7 7 7 8 7 7 6 5 5 4 4 3 3 3 2 1 2 4 5 7 7 8 9 10 9 6 7 8 11 13 13 13
7 7 6 5 5 5 5 5 5 6 6 6 6 5 7 6 6 6 7 7 7 5 3 4 3 2 1 3 4 5 8 8 8 8 8 8 6 9 12 14 12 11 11
8 8 7 6 6 5 4 3 3 2 2 3 4 5 6 7 8 8 7 6 6 7 8 8 6 2 2 2 5 8 7 7 9 7 7 8 10 12 14 13 11 11 12
11 9 9 9 7 6 5 4 2 1 1 2 5 6 8 8 8 5 5 6 6 6 7 6 4 3 3 4 6 7 7 13 12 7 9 13 11 12 10 9 10 9 14
13 12 11 10 8 6 8 5 5 4 3 2 3 4 3 5 7 9 9 5 5 5 5 4 3 4 3 4 5 6 8 9 3 5 16 18 8 8 10 11 11 16 16
14 14 12 11 10 9 9 7 7 5 5 5 4 3 2 2 3 3 7 8 8 7 7 5 5 6 4 4 5 7 8 8 8 15 14 7 8 10 13 16 16 14 11
16 15 14 13 11 9 11 9 8 6 6 6 5 5 4 3 2 3 2 4 5 5 6 6 6 3 2 2 4 5 7 10 12 8 8 4 10 15 23 20 11 10 6
17 17 16 15 15 13 14 12 10 8 8 8 7 7 6 6 4 4 5 4 3 2 2 3 2 1 1 3 4 5 5 7 4 3 7 6 8 19 17 12 4 5 16
19 19 17 17 17 16 16 16 15 11 11 10 10 9 11 7 9 6 4 4 4 4 2 1 3 3 2 4 6 4 4 4 4 5 3 10 11 11 9 7 5 20 16
Wind_Direction
279 277 276 274 268 267 271 272 263 257 258 260 249 241 236 242 247 247 247 253 252 256 247 239 237 240 240 241 242 244 248 251 250 253 254 259 262 262 262 262 262 263 264
275 274 272 271 270 270 268 267 267 269 263 258 252 255 255 245 245 249 249 250 253 252 254 245 239 238 239 242 245 247 248 250 251 254 258 263 266 266 265 263 262 262 263
276 273 271 269 267 266 266 268 266 268 267 260 255 247 251 252 256 254 253 248 253 252 253 252 244 241 240 242 244 245 248 251 253 258 262 266 268 270 270 268 267 266 266
282 279 275 271 271 270 269 266 264 263 268 266 259 251 247 249 252 256 255 253 248 249 251 252 251 245 244 243 244 244 246 250 254 259 265 268 270 271 272 272 271 269 268
290 284 278 274 273 276 273 271 268 267 268 271 268 264 259 254 253 257 258 254 255 249 245 247 246 251 251 249 247 244 244 251 258 262 266 270 270 270 271 272 272 272 270
299 293 283 277 272 275 275 274 271 270 272 274 274 271 266 263 256 254 253 254 256 248 255 249 254 254 248 251 255 251 239 237 246 251 264 273 274 271 271 272 270 271 272
307 303 295 283 274 271 272 273 274 275 273 274 276 276 273 264 266 257 254 252 251 251 252 248 248 258 250 262 258 252 246 247 251 265 273 289 284 278 275 273 269 269 270
309 304 296 290 282 279 276 276 274 275 276 279 280 284 283 273 255 251 246 240 247 247 241 243 245 243 241 255 245 247 245 252 252 260 265 267 274 273 273 271 271 269 268
312 308 303 294 289 284 280 280 279 278 280 279 277 265 287 267 294 277 251 240 239 234 241 241 243 245 238 229 232 230 236 241 256 261 262 268 271 273 274 273 272 272 271
321 320 315 306 303 299 292 289 283 281 284 281 281 278 271 270 285 289 282 274 250 245 218 238 230 224 222 227 225 223 215 223 251 261 268 278 282 282 276 276 277 279 274
323 325 329 325 308 299 297 297 292 287 285 280 281 282 287 281 275 266 273 266 282 234 224 234 234 223 216 207 174 174 219 295 296 292 293 293 295 294 291 289 286 280 274
323 323 327 326 317 311 308 301 298 296 291 288 283 283 279 283 283 289 275 268 244 278 248 199 186 157 146 156 159 188 275 277 280 308 309 288 285 293 281 266 275 261 256
325 316 313 319 325 321 314 306 304 304 303 304 301 292 287 281 286 286 286 273 282 295 201 141 157 157 160 172 216 255 264 281 300 267 293 26 264 258 266 262 265 274 270
311 316 313 319 322 308 305 311 310 310 301 298 296 290 291 292 291 284 290 300 286 255 172 160 159 172 215 225 216 240 271 260 239 242 252 277 283 278 288 285 285 282 284
305 312 321 318 308 303 312 309 308 306 304 304 307 309 303 302 300 291 286 274 261 271 206 106 140 133 164 183 172 159 170 259 276 282 292 298 296 305 307 306 297 293 293
309 308 306 316 317 317 311 315 313 323 320 312 309 324 329 319 318 323 310 312 313 282 213 40 102 158 165 146 104 165 313 321 305 307 304 295 299 302 307 313 317 314 309
308 300 297 304 316 316 316 320 313 312 319 323 336 339 333 342 345 339 347 342 317 301 302 98 118 161 151 175 325 336 333 329 316 312 319 318 323 322 316 317 319 315 311
294 299 292 293 297 316 328 329 325 315 324 331 343 347 353 350 348 357 5 14 14 2 348 133 147 150 48 355 345 335 339 332 332 333 321 313 301 301 315 311 309 305 305
268 274 277 281 296 309 324 327 332 340 351 359 -0 3 6 10 20 18 25 25 24 29 63 115 114 100 32 2 336 339 341 346 342 323 315 312 305 303 303 306 301 305 299
249 251 256 265 274 285 290 296 311 332 20 34 37 38 29 35 39 27 30 33 36 52 57 69 68 73 53 13 15 16 9 345 333 330 336 334 308 309 309 301 310 299 305
236 240 245 246 254 259 262 258 271 249 145 88 69 64 64 64 52 59 51 38 44 71 75 83 85 97 59 31 22 359 344 342 345 339 347 328 318 305 309 300 302 307 312
233 233 235 237 236 238 246 231 201 219 189 179 134 114 87 53 55 68 68 75 95 50 61 71 87 81 62 31 10 357 352 360 348 10 341 317 329 319 333 326 311 309 309
236 236 237 236 233 228 241 224 208 200 196 186 179 173 143 106 94 74 67 59 70 89 103 73 78 54 49 18 356 353 354 341 315 311 329 310 338 331 323 309 309 311 312
229 233 240 240 239 237 243 227 215 204 202 205 204 192 191 178 180 133 125 93 84 86 90 83 84 70 56 32 6 348 334 322 320 311 332 291 325 318 315 319 307 302 311
224 226 226 228 231 234 243 226 215 217 218 215 209 203 198 182 209 177 159 152 143 73 38 59 86 120 1 319 334 351 357 348 321 338 332 319 314 321 316 321 301 294 321
227 227 228 230 231 228 236 228 215 215 221 215 219 215 209 199 214 182 178 192 191 190 190 321 342 0 42 337 349 350 334 335 327 289 331 343 328 358 325 325 299 311 317
Height
798 797 795 794 793 792 792 791 791 790 789 788 788 787 787 789 790 790 790 790 790 791 792 792 794 796 797 797 798 799 800 801 801 802 802 803 803 803 804 804 805 805 804
795 794 792 791 790 789 788 787 787 786 785 785 784 784 783 783 784 784 784 785 784 785 786 787 788 790 792 793 794 795 796 797 798 798 798 799 799 800 800 800 800 801 801
791 790 788 787 785 784 783 782 782 781 780 780 780 780 780 780 779 779 778 778 778 778 779 781 782 784 786 788 789 790 791 792 793 794 795 795 795 796 796 796 796 796 797
788 786 784 783 782 781 780 779 778 777 776 775 774 773 772 772 772 773 773 773 773 773 772 773 775 776 779 781 784 785 786 787 788 789 790 791 791 792 792 792 792 792 792
784 783 781 779 778 777 776 775 774 773 772 771 769 768 767 765 763 764 765 765 766 767 767 767 768 771 774 776 778 780 781 783 784 784 785 786 786 787 787 787 787 787 787
781 779 777 776 775 774 773 772 771 769 768 767 766 763 762 760 758 757 755 756 757 759 760 761 762 763 759 767 771 776 776 776 778 777 777 780 781 781 781 781 781 781 781
779 777 775 773 772 771 770 769 767 765 764 764 762 759 755 754 753 752 750 749 749 750 751 752 754 756 754 759 763 770 771 771 771 773 771 770 773 775 775 774 775 775 776
778 775 773 771 769 768 767 766 764 762 761 761 759 757 752 747 744 744 743 741 741 743 742 744 746 748 750 752 758 764 764 766 766 768 769 768 768 769 769 768 767 768 769
776 774 772 770 767 766 765 763 762 761 758 758 757 757 752 744 740 738 737 737 735 737 736 737 738 741 742 745 753 756 758 760 762 763 764 763 762 762 762 763 762 761 762
774 772 769 768 765 764 763 761 760 759 757 756 754 752 751 749 747 740 734 734 734 732 729 735 734 736 739 743 747 751 752 753 758 760 758 757 756 756 757 756 756 755 755
772 770 768 766 764 763 761 760 759 757 756 754 753 749 746 745 744 743 737 732 733 717 727 731 734 733 737 739 743 746 748 749 754 756 754 752 753 753 751 751 750 751 750
770 769 767 764 762 760 758 758 756 754 754 752 749 748 745 744 739 739 736 732 730 730 727 729 732 732 736 739 741 742 745 744 747 751 752 747 747 750 750 749 749 749 748
768 766 765 762 759 757 757 755 753 751 751 749 747 745 743 740 738 737 736 731 729 727 728 730 732 733 735 737 737 738 740 742 740 744 745 745 744 745 747 747 747 745 745
766 764 762 759 757 757 755 754 752 750 749 746 743 742 740 738 736 734 734 733 729 727 729 731 732 732 734 736 737 737 736 737 740 740 740 742 741 745 744 745 743 743 741
764 762 760 758 757 755 753 752 750 748 746 744 742 739 737 735 733 732 731 731 729 726 727 730 732 733 734 735 736 737 738 737 738 738 738 738 741 741 741 741 741 739 740
762 760 758 757 755 754 752 750 748 746 744 742 740 738 736 734 732 730 729 728 727 726 726 731 732 732 734 734 735 736 738 738 738 738 737 737 739 737 737 737 740 738 736
761 758 756 755 754 753 751 749 747 746 744 741 739 737 735 734 733 731 730 728 727 728 727 732 732 733 734 735 736 737 737 736 737 735 737 736 736 736 736 737 735 736 735
758 756 754 753 752 751 749 748 746 745 744 742 739 738 736 734 732 732 730 730 730 730 729 729 732 734 734 735 736 736 735 736 736 735 735 734 734 735 734 735 734 734 732
756 754 753 751 749 748 747 747 746 745 744 742 740 738 737 736 734 733 732 732 731 730 729 729 733 734 734 735 735 735 734 735 735 735 734 734 732 732 733 732 732 730 729
752 751 750 749 747 746 745 744 744 743 742 741 739 738 738 737 736 736 735 734 734 733 732 733 734 735 736 736 736 735 735 736 735 735 732 732 733 731 731 731 727 728 726
747 747 747 746 745 745 744 744 743 742 741 740 740 739 738 737 736 736 737 736 735 734 734 734 735 736 737 738 738 738 738 736 735 734 734 733 732 731 730 729 728 726 724
744 743 743 743 743 742 741 740 741 741 741 741 740 740 739 739 737 736 736 736 736 737 737 737 737 738 739 740 740 740 739 738 738 736 734 732 731 730 728 726 725 724 722
741 741 741 741 740 739 738 738 739 739 739 739 739 739 739 738 739 738 737 737 736 737 738 739 739 740 740 741 741 741 741 740 739 736 734 729 729 727 726 724 722 721 719
736 737 739 739 739 738 737 737 737 738 738 739 739 738 739 739 738 739 740 739 739 738 738 738 739 741 741 741 741 741 741 740 738 736 734 732 728 726 724 721 720 719 719
730 731 732 733 734 735 734 735 736 737 737 736 736 737 738 737 738 739 738 739 741 741 741 740 739 738 739 740 740 740 740 741 739 738 737 736 730 725 720 717 719 719 718
725 726 727 728 728 729 729 731 732 734 734 734 735 735 735 737 736 736 739 739 739 739 740 741 741 740 739 740 740 740 740 741 741 737 737 737 732 729 722 716 716 716 714